| time (UTC) | temp F | wind direction | speed MPH | gust MPH | rain 1hr in | rain 24hr in | rain mn in | humidity % | barometer mb |
| 20260505041059 | 71 | 77 | 1.0 | 4.0 | 0.00 | 0.04 | 0.00 | 85 | 1014.8 |
| 20260505040328 | 71 | 73 | 0.0 | 4.0 | 0.00 | 0.04 | 0.00 | 86 | 1014.7 |
| 20260505035828 | 71 | 93 | 0.0 | 4.0 | 0.00 | 0.04 | 0.00 | 86 | 1014.8 |
| 20260505035326 | 71 | 93 | 0.0 | 4.0 | 0.00 | 0.04 | 0.00 | 87 | 1014.8 |
| 20260505034827 | 71 | 117 | 0.0 | 3.0 | 0.00 | 0.04 | 0.00 | 88 | 1014.9 |
| 20260505034554 | 70 | 117 | 0.0 | 3.0 | 0.00 | 0.04 | 0.00 | 88 | 1014.9 |
| 20260505033823 | 70 | 116 | 0.0 | 0.0 | 0.00 | 0.04 | 0.00 | 89 | 1014.9 |
| 20260505033323 | 70 | 108 | 0.0 | 3.0 | 0.00 | 0.04 | 0.00 | 89 | 1014.8 |
| 20260505032823 | 70 | 72 | 0.0 | 2.0 | 0.00 | 0.04 | 0.00 | 90 | 1014.8 |
| 20260505032324 | 69 | 74 | 0.0 | 2.0 | 0.00 | 0.04 | 0.00 | 90 | 1014.8 |
| 20260505031823 | 69 | 73 | 0.0 | 3.0 | 0.00 | 0.04 | 0.00 | 91 | 1014.8 |
| 20260505031321 | 69 | 69 | 1.0 | 4.0 | 0.00 | 0.04 | 0.00 | 91 | 1014.8 |
| 20260505030824 | 69 | 74 | 1.0 | 4.0 | 0.00 | 0.04 | 0.00 | 92 | 1014.8 |
| 20260505030318 | 69 | 78 | 1.0 | 5.0 | 0.00 | 0.04 | 0.00 | 92 | 1014.7 |
| 20260505030015 | 68 | 77 | 1.0 | 5.0 | 0.00 | 0.04 | 0.04 | 92 | 1014.7 |
| 20260505025232 | 68 | 100 | 0.0 | 3.0 | 0.00 | 0.04 | 0.04 | 92 | 1014.6 |
| 20260505024720 | 68 | 64 | 0.0 | 4.0 | 0.00 | 0.04 | 0.04 | 92 | 1014.8 |
| 20260505024439 | 68 | 63 | 0.0 | 4.0 | 0.00 | 0.04 | 0.04 | 92 | 1014.8 |
| 20260505023654 | 68 | 180 | 0.0 | 0.0 | 0.00 | 0.04 | 0.04 | 92 | 1014.8 |
| 20260505023140 | 68 | 180 | 0.0 | 0.0 | 0.00 | 0.04 | 0.04 | 92 | 1014.8 |
| 20260505022901 | 68 | 180 | 0.0 | 0.0 | 0.00 | 0.04 | 0.04 | 92 | 1014.8 |
| 20260505022129 | 68 | 180 | 0.0 | 0.0 | 0.00 | 0.04 | 0.04 | 92 | 1014.8 |
| 20260505021124 | 68 | 180 | 0.0 | 0.0 | 0.00 | 0.04 | 0.04 | 92 | 1014.8 |
| 20260505020856 | 68 | 180 | 0.0 | 0.0 | 0.00 | 0.04 | 0.04 | 92 | 1014.8 |
| 20260505020124 | 68 | 180 | 0.0 | 0.0 | 0.00 | 0.04 | 0.04 | 92 | 1014.7 |
| 20260505015622 | 68 | 180 | 0.0 | 0.0 | 0.00 | 0.04 | 0.04 | 92 | 1014.7 |
| 20260505015120 | 68 | 180 | 0.0 | 0.0 | 0.00 | 0.04 | 0.04 | 92 | 1014.7 |
| 20260505014851 | 68 | 180 | 0.0 | 0.0 | 0.00 | 0.04 | 0.04 | 92 | 1014.7 |
| 20260505014348 | 68 | 180 | 0.0 | 0.0 | 0.00 | 0.04 | 0.04 | 92 | 1014.7 |
| 20260505013616 | 68 | 180 | 0.0 | 0.0 | 0.00 | 0.04 | 0.04 | 92 | 1014.7 |
| 20260505013345 | 68 | 180 | 0.0 | 0.0 | 0.00 | 0.04 | 0.04 | 92 | 1014.7 |
| 20260505012613 | 68 | 180 | 0.0 | 0.0 | 0.00 | 0.04 | 0.04 | 92 | 1014.8 |
| 20260505012114 | 68 | 175 | 0.0 | 0.0 | 0.00 | 0.04 | 0.04 | 92 | 1014.7 |
| 20260505011613 | 68 | 175 | 0.0 | 0.0 | 0.00 | 0.04 | 0.04 | 92 | 1014.7 |
| 20260505011109 | 68 | 175 | 0.0 | 0.0 | 0.00 | 0.04 | 0.04 | 92 | 1014.6 |
| 20260505010841 | 68 | 175 | 0.0 | 0.0 | 0.00 | 0.04 | 0.04 | 91 | 1014.5 |
| 20260505010110 | 68 | 175 | 0.0 | 0.0 | 0.00 | 0.04 | 0.04 | 91 | 1014.5 |
| 20260505005610 | 68 | 175 | 0.0 | 0.0 | 0.00 | 0.04 | 0.04 | 91 | 1014.5 |
| 20260505005110 | 68 | 175 | 0.0 | 0.0 | 0.00 | 0.04 | 0.04 | 91 | 1014.3 |
| 20260505004609 | 68 | 175 | 0.0 | 0.0 | 0.00 | 0.04 | 0.04 | 91 | 1014.5 |
| 20260505004341 | 68 | 175 | 0.0 | 0.0 | 0.00 | 0.04 | 0.04 | 91 | 1014.4 |
| 20260505003841 | 68 | 175 | 0.0 | 0.0 | 0.00 | 0.04 | 0.04 | 91 | 1014.4 |
| 20260505003110 | 68 | 175 | 0.0 | 0.0 | 0.00 | 0.04 | 0.04 | 91 | 1014.3 |
| 20260505002607 | 68 | 175 | 0.0 | 0.0 | 0.00 | 0.04 | 0.04 | 91 | 1014.4 |
| 20260505001606 | 68 | 175 | 0.0 | 0.0 | 0.00 | 0.04 | 0.04 | 91 | 1014.5 |
| 20260505001333 | 68 | 175 | 0.0 | 0.0 | 0.00 | 0.04 | 0.04 | 91 | 1014.4 |
| 20260505000603 | 68 | 175 | 0.0 | 0.0 | 0.00 | 0.04 | 0.04 | 91 | 1014.4 |
| 20260504235103 | 68 | 175 | 0.0 | 0.0 | 0.00 | 0.04 | 0.04 | 91 | 1014.3 |
| 20260504234601 | 68 | 175 | 0.0 | 0.0 | 0.00 | 0.04 | 0.04 | 91 | 1014.4 |
| 20260504234101 | 68 | 175 | 0.0 | 0.0 | 0.00 | 0.04 | 0.04 | 91 | 1014.4 |
| 20260504233601 | 68 | 175 | 0.0 | 0.0 | 0.00 | 0.04 | 0.04 | 91 | 1014.5 |
| 20260504233102 | 68 | 175 | 0.0 | 0.0 | 0.00 | 0.04 | 0.04 | 91 | 1014.3 |
| 20260504232601 | 68 | 175 | 0.0 | 0.0 | 0.00 | 0.04 | 0.04 | 91 | 1014.3 |
| 20260504231601 | 68 | 175 | 0.0 | 0.0 | 0.00 | 0.04 | 0.04 | 91 | 1014.4 |
| 20260504231100 | 68 | 175 | 0.0 | 0.0 | 0.00 | 0.04 | 0.04 | 91 | 1014.4 |
| 20260504230557 | 68 | 175 | 0.0 | 0.0 | 0.00 | 0.04 | 0.04 | 91 | 1014.3 |
| 20260504230058 | 68 | 175 | 0.0 | 0.0 | 0.00 | 0.04 | 0.04 | 91 | 1014.2 |
| 20260504225557 | 68 | 175 | 0.0 | 0.0 | 0.00 | 0.04 | 0.04 | 91 | 1014.2 |
| 20260504225056 | 68 | 175 | 0.0 | 0.0 | 0.00 | 0.04 | 0.04 | 91 | 1014.3 |
| 20260504224556 | 68 | 175 | 0.0 | 0.0 | 0.00 | 0.04 | 0.04 | 91 | 1014.3 |
| 20260504223050 | 68 | 175 | 0.0 | 0.0 | 0.00 | 0.04 | 0.04 | 91 | 1014.0 |
| 20260504222550 | 68 | 175 | 0.0 | 0.0 | 0.00 | 0.04 | 0.04 | 91 | 1013.9 |
| 20260504222051 | 68 | 175 | 0.0 | 0.0 | 0.00 | 0.04 | 0.04 | 91 | 1013.9 |
| 20260504221550 | 68 | 175 | 0.0 | 0.0 | 0.00 | 0.04 | 0.04 | 91 | 1013.8 |
| 20260504221044 | 68 | 175 | 0.0 | 0.0 | 0.00 | 0.04 | 0.04 | 91 | 1013.8 |
| 20260504220541 | 68 | 175 | 0.0 | 0.0 | 0.00 | 0.04 | 0.04 | 91 | 1013.7 |
| 20260504220042 | 68 | 175 | 0.0 | 0.0 | 0.00 | 0.04 | 0.04 | 91 | 1013.6 |
| 20260504215535 | 68 | 175 | 0.0 | 0.0 | 0.00 | 0.04 | 0.04 | 91 | 1013.6 |
| 20260504215305 | 68 | 137 | 0.0 | 0.0 | 0.00 | 0.04 | 0.04 | 91 | 1013.7 |
| 20260504214532 | 68 | 137 | 0.0 | 0.0 | 0.00 | 0.04 | 0.04 | 90 | 1013.6 |
| 20260504214029 | 68 | 137 | 0.0 | 0.0 | 0.00 | 0.04 | 0.04 | 90 | 1013.7 |
| 20260504213754 | 68 | 137 | 0.0 | 0.0 | 0.00 | 0.04 | 0.04 | 90 | 1013.7 |
| 20260504212510 | 69 | 137 | 0.0 | 0.0 | 0.00 | 0.04 | 0.04 | 90 | 1013.7 |
| 20260504212234 | 69 | 136 | 0.0 | 0.0 | 0.00 | 0.04 | 0.04 | 90 | 1013.6 |
| 20260504212108 | 69 | 137 | 0.0 | 0.0 | 0.00 | 0.04 | 0.04 | 90 | 1013.6 |
| 20260504211000 | 69 | 86 | 0.0 | 0.0 | 0.00 | 0.04 | 0.04 | 90 | 1013.4 |
| 20260504210953 | 69 | 86 | 0.0 | 0.0 | 0.00 | 0.04 | 0.04 | 90 | 1013.6 |
| 20260504205946 | 69 | 86 | 0.0 | 0.0 | 0.00 | 0.04 | 0.04 | 90 | 1013.3 |
| 20260504205438 | 69 | 86 | 0.0 | 0.0 | 0.00 | 0.04 | 0.04 | 90 | 1013.3 |
| 20260504204929 | 69 | 86 | 0.0 | 0.0 | 0.00 | 0.04 | 0.04 | 90 | 1013.3 |
| 20260504204421 | 69 | 86 | 0.0 | 0.0 | 0.00 | 0.04 | 0.04 | 90 | 1013.2 |
| 20260504203910 | 69 | 86 | 0.0 | 0.0 | 0.00 | 0.04 | 0.04 | 90 | 1013.1 |
| 20260504203354 | 69 | 86 | 0.0 | 0.0 | 0.00 | 0.04 | 0.04 | 89 | 1013.0 |
| 20260504202335 | 69 | 86 | 0.0 | 0.0 | 0.00 | 0.04 | 0.04 | 89 | 1013.2 |
| 20260504201824 | 69 | 86 | 0.0 | 0.0 | 0.00 | 0.04 | 0.04 | 90 | 1013.3 |
| 20260504201314 | 69 | 86 | 0.0 | 0.0 | 0.00 | 0.04 | 0.04 | 90 | 1013.3 |
| 20260504200804 | 69 | 86 | 0.0 | 0.0 | 0.00 | 0.04 | 0.04 | 90 | 1013.3 |
| 20260504200243 | 69 | 86 | 0.0 | 2.0 | 0.00 | 0.04 | 0.04 | 90 | 1013.2 |
| 20260504200004 | 69 | 86 | 0.0 | 2.0 | 0.00 | 0.04 | 0.04 | 90 | 1013.2 |
| 20260504195220 | 68 | 88 | 0.0 | 0.0 | 0.00 | 0.04 | 0.04 | 90 | 1013.0 |
| 20260504194711 | 68 | 88 | 0.0 | 0.0 | 0.00 | 0.04 | 0.04 | 89 | 1013.1 |
| 20260504194201 | 68 | 89 | 0.0 | 2.0 | 0.00 | 0.04 | 0.04 | 90 | 1013.1 |
| 20260504193644 | 68 | 87 | 0.0 | 2.0 | 0.00 | 0.04 | 0.04 | 89 | 1013.1 |
| 20260504193406 | 68 | 89 | 0.0 | 3.0 | 0.00 | 0.04 | 0.04 | 89 | 1013.1 |
| 20260504192616 | 68 | 100 | 1.0 | 3.0 | 0.01 | 0.04 | 0.04 | 89 | 1013.2 |
| 20260504192106 | 68 | 74 | 1.0 | 5.0 | 0.01 | 0.04 | 0.04 | 89 | 1013.1 |
| 20260504191553 | 68 | 68 | 1.0 | 5.0 | 0.03 | 0.04 | 0.04 | 89 | 1013.3 |
| 20260504190534 | 68 | 86 | 0.0 | 3.0 | 0.04 | 0.04 | 0.04 | 89 | 1013.3 |
| 20260504190022 | 68 | 79 | 0.0 | 5.0 | 0.04 | 0.04 | 0.04 | 89 | 1013.3 |
| 20260504185510 | 69 | 87 | 0.0 | 5.0 | 0.04 | 0.04 | 0.04 | 88 | 1013.3 |
| 20260504184958 | 69 | 62 | 0.0 | 3.0 | 0.04 | 0.04 | 0.04 | 88 | 1013.4 |
| 20260504183427 | 69 | 62 | 0.0 | 0.0 | 0.04 | 0.04 | 0.04 | 86 | 1013.6 |
| 20260504183150 | 70 | 39 | 0.0 | 0.0 | 0.04 | 0.04 | 0.04 | 85 | 1013.6 |
| 20260504182406 | 70 | 39 | 0.0 | 0.0 | 0.03 | 0.03 | 0.03 | 85 | 1013.8 |
| 20260504181854 | 70 | 39 | 0.0 | 2.0 | 0.03 | 0.03 | 0.03 | 84 | 1013.7 |
| 20260504181338 | 71 | 308 | 0.0 | 2.0 | 0.01 | 0.01 | 0.01 | 83 | 1013.8 |
| 20260504180828 | 71 | 302 | 0.0 | 3.0 | 0.00 | 0.00 | 0.00 | 82 | 1013.9 |
| 20260504180548 | 71 | 308 | 0.0 | 4.0 | 0.00 | 0.00 | 0.00 | 81 | 1013.9 |
| 20260504175808 | 72 | 18 | 0.0 | 4.0 | 0.00 | 0.00 | 0.00 | 80 | 1013.8 |
| 20260504175254 | 72 | 145 | 0.0 | 0.0 | 0.00 | 0.00 | 0.00 | 79 | 1013.7 |
| 20260504174752 | 72 | 143 | 0.0 | 0.0 | 0.00 | 0.00 | 0.00 | 78 | 1013.6 |
| 20260504174252 | 72 | 144 | 0.0 | 0.0 | 0.00 | 0.00 | 0.00 | 77 | 1013.6 |
| 20260504173247 | 72 | 144 | 0.0 | 0.0 | 0.00 | 0.00 | 0.00 | 77 | 1013.6 |
| 20260504172747 | 72 | 144 | 0.0 | 0.0 | 0.00 | 0.00 | 0.00 | 77 | 1013.7 |
| 20260504172247 | 72 | 144 | 0.0 | 0.0 | 0.00 | 0.00 | 0.00 | 76 | 1013.7 |
| 20260504172138 | 73 | 137 | 0.0 | 0.0 | 0.00 | 0.00 | 0.00 | 76 | 1013.7 |
| 20260504172030 | 72 | 144 | 0.0 | 0.0 | 0.00 | 0.00 | 0.00 | 76 | 1013.8 |
| 20260504171013 | 73 | 134 | 0.0 | 0.0 | 0.00 | 0.00 | 0.00 | 75 | 1013.6 |
| 20260504170239 | 73 | 129 | 0.0 | 0.0 | 0.00 | 0.00 | 0.00 | 75 | 1013.6 |
| 20260504160231 | 74 | 230 | 0.0 | 0.0 | 0.00 | 0.00 | 0.00 | 73 | 1014.5 |
| 20260504150946 | 74 | 236 | 0.0 | 3.0 | 0.00 | 0.00 | 0.00 | 72 | 1015.0 |
| 20260504150212 | 73 | 237 | 1.0 | 3.0 | 0.00 | 0.00 | 0.00 | 72 | 1015.1 |
| 20260504141154 | 67 | 210 | 0.0 | 2.0 | 0.00 | 0.00 | 0.00 | 80 | 1015.7 |
| 20260504140652 | 67 | 209 | 0.0 | 2.0 | 0.00 | 0.00 | 0.00 | 80 | 1015.8 |
| 20260504140426 | 67 | 210 | 0.0 | 2.0 | 0.00 | 0.00 | 0.00 | 80 | 1015.8 |
| 20260504140302 | 66 | 212 | 0.0 | 1.0 | 0.00 | 0.00 | 0.00 | 80 | 1015.9 |
| 20260504130643 | 60 | 219 | 0.0 | 1.0 | 0.00 | 0.00 | 0.00 | 88 | 1016.2 |
| 20260504130139 | 59 | 219 | 0.0 | 2.0 | 0.00 | 0.00 | 0.00 | 89 | 1016.3 |
| 20260504110304 | 49 | 83 | 0.0 | 0.0 | 0.00 | 0.00 | 0.00 | 93 | 1015.8 |
| 20260504100413 | 48 | 83 | 0.0 | 0.0 | 0.00 | 0.00 | 0.00 | 92 | 1015.8 |
| 20260504081949 | 48 | 81 | 1.0 | 3.0 | 0.00 | 0.00 | 0.00 | 92 | 1015.6 |
| 20260504081425 | 48 | 81 | 2.0 | 3.0 | 0.00 | 0.00 | 0.00 | 92 | 1015.6 |
| 20260504080923 | 48 | 81 | 1.0 | 3.0 | 0.00 | 0.00 | 0.00 | 92 | 1015.6 |
| 20260504080423 | 48 | 81 | 0.0 | 3.0 | 0.00 | 0.00 | 0.00 | 92 | 1015.7 |
| 20260504070409 | 48 | 81 | 1.0 | 3.0 | 0.00 | 0.00 | 0.00 | 92 | 1015.6 |
| 20260504050315 | 49 | 81 | 0.0 | 0.0 | 0.00 | 0.00 | 0.00 | 91 | 1016.9 |
| 20260504045310 | 49 | 81 | 0.0 | 2.0 | 0.00 | 0.00 | 0.00 | 91 | 1017.0 |
| 20260504044749 | 49 | 81 | 0.0 | 0.0 | 0.00 | 0.00 | 0.00 | 91 | 1017.1 |